| time (UTC) | temp F | wind direction | speed knots | gust knots | rain 1hr in | rain 24hr in | rain mn in | humidity % | barometer mb |
| 20260507120254 | 48 | 212 | 5.2 | 7.0 | 0.00 | 0.00 | 0.00 | 79 | 872.7 |
| 20260507120052 | 48 | 216 | 4.3 | 6.1 | 0.00 | 0.00 | 0.00 | 79 | 872.7 |
| 20260507115852 | 48 | 216 | 4.3 | 6.1 | 0.00 | 0.00 | 0.00 | 79 | 872.7 |
| 20260507115652 | 47 | 215 | 5.2 | 7.0 | 0.00 | 0.00 | 0.00 | 79 | 872.7 |
| 20260507115453 | 47 | 222 | 6.1 | 7.0 | 0.00 | 0.00 | 0.00 | 79 | 872.7 |
| 20260507115253 | 47 | 223 | 7.0 | 7.8 | 0.00 | 0.00 | 0.00 | 79 | 872.7 |
| 20260507115053 | 47 | 222 | 7.0 | 7.8 | 0.00 | 0.00 | 0.00 | 79 | 872.7 |
| 20260507114853 | 47 | 220 | 6.1 | 7.8 | 0.00 | 0.00 | 0.00 | 79 | 872.7 |
| 20260507114653 | 47 | 215 | 5.2 | 7.0 | 0.00 | 0.00 | 0.00 | 79 | 872.7 |
| 20260507114453 | 47 | 211 | 6.1 | 8.7 | 0.00 | 0.00 | 0.00 | 79 | 872.7 |
| 20260507114253 | 47 | 216 | 6.1 | 7.0 | 0.00 | 0.00 | 0.00 | 79 | 872.7 |
| 20260507114051 | 47 | 215 | 5.2 | 6.1 | 0.00 | 0.00 | 0.00 | 78 | 872.7 |
| 20260507113849 | 48 | 216 | 4.3 | 5.2 | 0.00 | 0.00 | 0.00 | 78 | 872.7 |
| 20260507113649 | 48 | 220 | 4.3 | 6.1 | 0.00 | 0.00 | 0.00 | 78 | 872.6 |
| 20260507113449 | 48 | 224 | 5.2 | 7.8 | 0.00 | 0.00 | 0.00 | 78 | 872.7 |
| 20260507113249 | 48 | 221 | 5.2 | 7.0 | 0.00 | 0.00 | 0.00 | 78 | 872.7 |
| 20260507113049 | 48 | 219 | 5.2 | 7.0 | 0.00 | 0.00 | 0.00 | 78 | 872.7 |
| 20260507112849 | 48 | 215 | 5.2 | 7.0 | 0.00 | 0.00 | 0.00 | 78 | 872.7 |
| 20260507112649 | 48 | 209 | 4.3 | 5.2 | 0.00 | 0.00 | 0.00 | 78 | 872.7 |
| 20260507112449 | 48 | 199 | 3.5 | 5.2 | 0.00 | 0.00 | 0.00 | 78 | 872.6 |
| 20260507112249 | 48 | 207 | 4.3 | 6.1 | 0.00 | 0.00 | 0.00 | 78 | 872.6 |
| 20260507112047 | 48 | 216 | 3.5 | 4.3 | 0.00 | 0.00 | 0.00 | 78 | 872.6 |
| 20260507111847 | 48 | 224 | 3.5 | 3.5 | 0.00 | 0.00 | 0.00 | 78 | 872.6 |
| 20260507111647 | 48 | 232 | 3.5 | 3.5 | 0.00 | 0.00 | 0.00 | 78 | 872.6 |
| 20260507111447 | 48 | 233 | 3.5 | 4.3 | 0.00 | 0.00 | 0.00 | 78 | 872.6 |
| 20260507111247 | 48 | 233 | 2.6 | 3.5 | 0.00 | 0.00 | 0.00 | 78 | 872.6 |
| 20260507111047 | 48 | 227 | 3.5 | 4.3 | 0.00 | 0.00 | 0.00 | 78 | 872.6 |
| 20260507110847 | 48 | 230 | 3.5 | 4.3 | 0.00 | 0.00 | 0.00 | 78 | 872.6 |
| 20260507110647 | 48 | 243 | 3.5 | 5.2 | 0.00 | 0.00 | 0.00 | 78 | 872.6 |
| 20260507110447 | 48 | 253 | 3.5 | 5.2 | 0.00 | 0.00 | 0.00 | 77 | 872.6 |
| 20260507110247 | 49 | 258 | 4.3 | 6.1 | 0.00 | 0.00 | 0.00 | 77 | 872.5 |
| 20260507110045 | 49 | 254 | 5.2 | 6.1 | 0.00 | 0.00 | 0.00 | 77 | 872.5 |
| 20260507105845 | 49 | 249 | 4.3 | 6.1 | 0.00 | 0.00 | 0.00 | 77 | 872.5 |
| 20260507105645 | 49 | 256 | 4.3 | 6.1 | 0.00 | 0.00 | 0.00 | 77 | 872.5 |
| 20260507105445 | 49 | 255 | 3.5 | 5.2 | 0.00 | 0.00 | 0.00 | 77 | 872.5 |
| 20260507105245 | 49 | 260 | 3.5 | 5.2 | 0.00 | 0.00 | 0.00 | 77 | 872.5 |
| 20260507105045 | 49 | 249 | 4.3 | 7.0 | 0.00 | 0.00 | 0.00 | 77 | 872.4 |
| 20260507104845 | 49 | 231 | 4.3 | 7.0 | 0.00 | 0.00 | 0.00 | 77 | 872.4 |
| 20260507104645 | 48 | 223 | 3.5 | 6.1 | 0.00 | 0.00 | 0.00 | 77 | 872.4 |
| 20260507104445 | 48 | 234 | 3.5 | 4.3 | 0.00 | 0.00 | 0.00 | 77 | 872.5 |
| 20260507104245 | 48 | 257 | 3.5 | 5.2 | 0.00 | 0.00 | 0.00 | 77 | 872.5 |
| 20260507104044 | 48 | 255 | 3.5 | 5.2 | 0.00 | 0.00 | 0.00 | 77 | 872.5 |
| 20260507103843 | 49 | 252 | 3.5 | 5.2 | 0.00 | 0.00 | 0.00 | 77 | 872.5 |
| 20260507103643 | 49 | 248 | 4.3 | 6.1 | 0.00 | 0.00 | 0.00 | 77 | 872.4 |
| 20260507103443 | 49 | 246 | 4.3 | 6.1 | 0.00 | 0.00 | 0.00 | 77 | 872.4 |
| 20260507103244 | 49 | 240 | 4.3 | 6.1 | 0.00 | 0.00 | 0.00 | 77 | 872.4 |
| 20260507103032 | 49 | 234 | 2.6 | 5.2 | 0.00 | 0.00 | 0.00 | 77 | 872.4 |
| 20260507102832 | 49 | 229 | 3.5 | 5.2 | 0.00 | 0.00 | 0.00 | 77 | 872.4 |
| 20260507102632 | 49 | 230 | 3.5 | 5.2 | 0.00 | 0.00 | 0.00 | 77 | 872.4 |
| 20260507102432 | 49 | 244 | 3.5 | 4.3 | 0.00 | 0.00 | 0.00 | 77 | 872.4 |
| 20260507102232 | 49 | 256 | 2.6 | 4.3 | 0.00 | 0.00 | 0.00 | 77 | 872.4 |
| 20260507102031 | 49 | 249 | 1.7 | 2.6 | 0.00 | 0.00 | 0.00 | 77 | 872.3 |
| 20260507101830 | 49 | 255 | 2.6 | 5.2 | 0.00 | 0.00 | 0.00 | 77 | 872.3 |
| 20260507101630 | 49 | 249 | 3.5 | 6.1 | 0.00 | 0.00 | 0.00 | 77 | 872.3 |
| 20260507101430 | 49 | 247 | 3.5 | 6.1 | 0.00 | 0.00 | 0.00 | 77 | 872.3 |
| 20260507101229 | 49 | 268 | 4.3 | 6.1 | 0.00 | 0.00 | 0.00 | 77 | 872.2 |
| 20260507101029 | 49 | 263 | 4.3 | 7.0 | 0.00 | 0.00 | 0.00 | 77 | 872.2 |
| 20260507100829 | 49 | 255 | 6.1 | 8.7 | 0.00 | 0.00 | 0.00 | 77 | 872.3 |
| 20260507100629 | 49 | 247 | 5.2 | 7.0 | 0.00 | 0.00 | 0.00 | 77 | 872.3 |
| 20260507100429 | 49 | 242 | 5.2 | 7.8 | 0.00 | 0.00 | 0.00 | 76 | 872.3 |
| 20260507100229 | 49 | 225 | 3.5 | 6.1 | 0.00 | 0.00 | 0.00 | 76 | 872.3 |
| 20260507100027 | 49 | 219 | 3.5 | 4.3 | 0.00 | 0.00 | 0.00 | 76 | 872.3 |
| 20260507095827 | 49 | 229 | 3.5 | 5.2 | 0.00 | 0.00 | 0.00 | 76 | 872.2 |
| 20260507095627 | 49 | 221 | 2.6 | 4.3 | 0.00 | 0.00 | 0.00 | 76 | 872.2 |
| 20260507095427 | 50 | 213 | 4.3 | 7.8 | 0.00 | 0.00 | 0.00 | 76 | 872.2 |
| 20260507095227 | 50 | 218 | 3.5 | 7.8 | 0.00 | 0.00 | 0.00 | 76 | 872.2 |
| 20260507095027 | 50 | 225 | 4.3 | 7.8 | 0.00 | 0.00 | 0.00 | 76 | 872.2 |
| 20260507094827 | 50 | 201 | 5.2 | 8.7 | 0.00 | 0.00 | 0.00 | 76 | 872.2 |
| 20260507094627 | 50 | 188 | 6.1 | 8.7 | 0.00 | 0.00 | 0.00 | 76 | 872.2 |
| 20260507094427 | 50 | 206 | 3.5 | 6.1 | 0.00 | 0.00 | 0.00 | 76 | 872.2 |
| 20260507094227 | 50 | 204 | 1.7 | 3.5 | 0.00 | 0.00 | 0.00 | 76 | 872.1 |
| 20260507094025 | 50 | 202 | 1.7 | 3.5 | 0.00 | 0.00 | 0.00 | 76 | 872.1 |
| 20260507093825 | 50 | 230 | 5.2 | 8.7 | 0.00 | 0.00 | 0.00 | 76 | 872.1 |
| 20260507093626 | 50 | 219 | 5.2 | 8.7 | 0.00 | 0.00 | 0.00 | 76 | 872.1 |
| 20260507093425 | 50 | 218 | 5.2 | 7.0 | 0.00 | 0.00 | 0.00 | 76 | 872.1 |
| 20260507093225 | 50 | 224 | 6.1 | 10.4 | 0.00 | 0.00 | 0.00 | 76 | 872.0 |
| 20260507093025 | 50 | 221 | 5.2 | 7.8 | 0.00 | 0.00 | 0.00 | 76 | 872.0 |
| 20260507092825 | 50 | 206 | 4.3 | 10.4 | 0.00 | 0.00 | 0.00 | 76 | 872.0 |
| 20260507092625 | 50 | 200 | 3.5 | 10.4 | 0.00 | 0.00 | 0.00 | 76 | 872.0 |
| 20260507092425 | 50 | 210 | 4.3 | 7.8 | 0.00 | 0.00 | 0.00 | 76 | 871.9 |
| 20260507092223 | 50 | 205 | 4.3 | 7.0 | 0.00 | 0.00 | 0.00 | 76 | 871.9 |
| 20260507092021 | 50 | 205 | 4.3 | 7.8 | 0.00 | 0.00 | 0.00 | 76 | 871.9 |
| 20260507091821 | 50 | 201 | 5.2 | 8.7 | 0.00 | 0.00 | 0.00 | 77 | 871.9 |
| 20260507091622 | 49 | 197 | 5.2 | 8.7 | 0.00 | 0.00 | 0.00 | 77 | 871.9 |
| 20260507091421 | 49 | 204 | 6.1 | 9.6 | 0.00 | 0.00 | 0.00 | 77 | 871.9 |
| 20260507091221 | 49 | 193 | 7.0 | 9.6 | 0.00 | 0.00 | 0.00 | 77 | 871.8 |
| 20260507091021 | 49 | 186 | 6.1 | 8.7 | 0.00 | 0.00 | 0.00 | 77 | 871.8 |
| 20260507090821 | 49 | 204 | 6.1 | 12.2 | 0.00 | 0.00 | 0.00 | 77 | 871.8 |
| 20260507090621 | 49 | 230 | 4.3 | 6.1 | 0.00 | 0.00 | 0.00 | 77 | 871.8 |
| 20260507090421 | 49 | 230 | 3.5 | 5.2 | 0.00 | 0.00 | 0.00 | 77 | 871.8 |
| 20260507090221 | 49 | 216 | 3.5 | 7.0 | 0.00 | 0.00 | 0.00 | 77 | 871.8 |
| 20260507090019 | 49 | 203 | 5.2 | 8.7 | 0.00 | 0.00 | 0.00 | 77 | 871.8 |
| 20260507085819 | 49 | 213 | 4.3 | 7.0 | 0.00 | 0.00 | 0.00 | 77 | 871.8 |
| 20260507085619 | 49 | 220 | 4.3 | 8.7 | 0.00 | 0.00 | 0.00 | 77 | 871.7 |
| 20260507085419 | 49 | 216 | 4.3 | 6.1 | 0.00 | 0.00 | 0.00 | 77 | 871.7 |
| 20260507085219 | 49 | 216 | 4.3 | 6.1 | 0.00 | 0.00 | 0.00 | 77 | 871.7 |
| 20260507085017 | 49 | 209 | 5.2 | 7.0 | 0.00 | 0.00 | 0.00 | 77 | 871.7 |
| 20260507084817 | 49 | 210 | 4.3 | 9.6 | 0.00 | 0.00 | 0.00 | 77 | 871.7 |
| 20260507084617 | 49 | 223 | 4.3 | 9.6 | 0.00 | 0.00 | 0.00 | 77 | 871.7 |
| 20260507084417 | 49 | 212 | 3.5 | 5.2 | 0.00 | 0.00 | 0.00 | 77 | 871.7 |
| 20260507084217 | 49 | 206 | 4.3 | 7.0 | 0.00 | 0.00 | 0.00 | 77 | 871.6 |
| 20260507084015 | 49 | 218 | 4.3 | 7.0 | 0.00 | 0.00 | 0.00 | 77 | 871.6 |
| 20260507083815 | 49 | 235 | 4.3 | 6.1 | 0.00 | 0.00 | 0.00 | 77 | 871.6 |
| 20260507083615 | 49 | 230 | 6.1 | 11.3 | 0.00 | 0.00 | 0.00 | 76 | 871.5 |
| 20260507083414 | 49 | 231 | 7.0 | 11.3 | 0.00 | 0.00 | 0.00 | 76 | 871.5 |
| 20260507083214 | 49 | 228 | 5.2 | 10.4 | 0.00 | 0.00 | 0.00 | 76 | 871.5 |
| 20260507083014 | 49 | 243 | 6.1 | 10.4 | 0.00 | 0.00 | 0.00 | 77 | 871.4 |
| 20260507082815 | 49 | 242 | 6.1 | 10.4 | 0.00 | 0.00 | 0.00 | 77 | 871.4 |
| 20260507082614 | 49 | 238 | 4.3 | 9.6 | 0.00 | 0.00 | 0.00 | 77 | 871.4 |
| 20260507082414 | 49 | 232 | 6.1 | 11.3 | 0.00 | 0.00 | 0.00 | 76 | 871.4 |
| 20260507082214 | 49 | 226 | 9.6 | 12.2 | 0.00 | 0.00 | 0.00 | 76 | 871.3 |
| 20260507082013 | 49 | 238 | 8.7 | 12.2 | 0.00 | 0.00 | 0.00 | 76 | 871.3 |
| 20260507081813 | 49 | 233 | 7.8 | 13.9 | 0.00 | 0.00 | 0.00 | 76 | 871.3 |
| 20260507081612 | 49 | 225 | 7.0 | 13.0 | 0.00 | 0.00 | 0.00 | 76 | 871.2 |
| 20260507081410 | 49 | 228 | 7.0 | 13.0 | 0.00 | 0.00 | 0.00 | 76 | 871.2 |
| 20260507081210 | 49 | 235 | 7.0 | 13.0 | 0.00 | 0.00 | 0.00 | 76 | 871.2 |
| 20260507081010 | 49 | 232 | 6.1 | 13.0 | 0.00 | 0.00 | 0.00 | 77 | 871.2 |
| 20260507080810 | 49 | 233 | 5.2 | 10.4 | 0.00 | 0.00 | 0.00 | 76 | 871.1 |
| 20260507080610 | 49 | 231 | 7.8 | 13.9 | 0.00 | 0.00 | 0.00 | 76 | 871.1 |
| 20260507080410 | 49 | 225 | 7.0 | 9.6 | 0.00 | 0.00 | 0.00 | 76 | 871.0 |
| 20260507080210 | 49 | 239 | 8.7 | 13.9 | 0.00 | 0.00 | 0.00 | 77 | 871.0 |
| 20260507080031 | 49 | 237 | 8.7 | 13.9 | 0.00 | 0.00 | 0.00 | 76 | 871.0 |
| 20260507075959 | 49 | 237 | 8.7 | 13.9 | 0.00 | 0.00 | 0.00 | 76 | 871.0 |
| 20260507075759 | 49 | 248 | 7.8 | 12.2 | 0.00 | 0.00 | 0.00 | 77 | 871.0 |
| 20260507075559 | 49 | 230 | 7.8 | 13.0 | 0.00 | 0.00 | 0.00 | 77 | 871.0 |
| 20260507075359 | 49 | 228 | 7.8 | 12.2 | 0.00 | 0.00 | 0.00 | 77 | 871.0 |
| 20260507075159 | 49 | 236 | 6.1 | 12.2 | 0.00 | 0.00 | 0.00 | 77 | 871.0 |
| 20260507074959 | 49 | 221 | 6.1 | 9.6 | 0.00 | 0.00 | 0.00 | 77 | 871.0 |
| 20260507074759 | 48 | 218 | 5.2 | 10.4 | 0.00 | 0.00 | 0.00 | 77 | 870.9 |
| 20260507074559 | 48 | 226 | 7.0 | 11.3 | 0.00 | 0.00 | 0.00 | 77 | 870.8 |
| 20260507074358 | 48 | 222 | 7.0 | 11.3 | 0.00 | 0.00 | 0.00 | 77 | 870.8 |
| 20260507073956 | 48 | 218 | 7.8 | 12.2 | 0.00 | 0.00 | 0.00 | 77 | 870.7 |
| 20260507073756 | 48 | 227 | 10.4 | 19.1 | 0.00 | 0.00 | 0.00 | 77 | 870.7 |
| 20260507073556 | 48 | 212 | 9.6 | 13.9 | 0.00 | 0.00 | 0.00 | 77 | 870.7 |
| 20260507073357 | 48 | 215 | 8.7 | 12.2 | 0.00 | 0.00 | 0.00 | 77 | 870.7 |
| 20260507073229 | 48 | 214 | 8.7 | 13.0 | 0.00 | 0.00 | 0.00 | 77 | 870.7 |
| 20260507073157 | 48 | 214 | 8.7 | 13.0 | 0.00 | 0.00 | 0.00 | 77 | 870.7 |
| 20260507072957 | 48 | 217 | 9.6 | 14.8 | 0.00 | 0.00 | 0.00 | 77 | 870.6 |
| 20260507072757 | 48 | 219 | 8.7 | 14.8 | 0.00 | 0.00 | 0.00 | 77 | 870.6 |
| 20260507072557 | 48 | 213 | 8.7 | 16.5 | 0.00 | 0.00 | 0.00 | 77 | 870.5 |
| 20260507072357 | 48 | 215 | 8.7 | 16.5 | 0.00 | 0.00 | 0.00 | 77 | 870.5 |
| 20260507072156 | 47 | 221 | 8.7 | 13.9 | 0.00 | 0.00 | 0.00 | 77 | 870.5 |
| 20260507071954 | 47 | 211 | 11.3 | 14.8 | 0.00 | 0.00 | 0.00 | 77 | 870.4 |
| 20260507071754 | 47 | 212 | 12.2 | 17.4 | 0.00 | 0.00 | 0.00 | 77 | 870.4 |
| 20260507071554 | 47 | 216 | 11.3 | 17.4 | 0.00 | 0.00 | 0.00 | 77 | 870.4 |
| 20260507071354 | 47 | 219 | 10.4 | 13.0 | 0.00 | 0.00 | 0.00 | 78 | 870.4 |
| 20260507071154 | 47 | 219 | 10.4 | 17.4 | 0.00 | 0.00 | 0.00 | 77 | 870.3 |
| 20260507070954 | 47 | 217 | 11.3 | 17.4 | 0.00 | 0.00 | 0.00 | 78 | 870.3 |
| 20260507070754 | 47 | 215 | 13.0 | 20.9 | 0.00 | 0.00 | 0.00 | 78 | 870.2 |
| 20260507070552 | 47 | 220 | 14.8 | 20.9 | 0.00 | 0.00 | 0.00 | 77 | 870.1 |
| 20260507070352 | 47 | 220 | 13.9 | 19.1 | 0.00 | 0.00 | 0.00 | 77 | 870.1 |
| 20260507070152 | 47 | 226 | 12.2 | 18.2 | 0.00 | 0.00 | 0.00 | 77 | 870.1 |
| 20260507065950 | 47 | 226 | 10.4 | 14.8 | 0.00 | 0.00 | 0.00 | 77 | 870.2 |
| 20260507065750 | 47 | 221 | 10.4 | 13.9 | 0.00 | 0.00 | 0.00 | 77 | 870.2 |
| 20260507065550 | 47 | 220 | 9.6 | 15.6 | 0.00 | 0.00 | 0.00 | 77 | 870.2 |
| 20260507065350 | 47 | 221 | 10.4 | 15.6 | 0.00 | 0.00 | 0.00 | 77 | 870.1 |
| 20260507065150 | 47 | 218 | 12.2 | 15.6 | 0.00 | 0.00 | 0.00 | 77 | 870.1 |
| 20260507064949 | 47 | 217 | 10.4 | 16.5 | 0.00 | 0.00 | 0.00 | 77 | 870.1 |
| 20260507064749 | 47 | 212 | 10.4 | 16.5 | 0.00 | 0.00 | 0.00 | 77 | 870.1 |
| 20260507064549 | 47 | 215 | 11.3 | 18.2 | 0.00 | 0.00 | 0.00 | 77 | 870.1 |
| 20260507064349 | 47 | 218 | 11.3 | 19.1 | 0.00 | 0.00 | 0.00 | 77 | 870.1 |
| 20260507064149 | 47 | 220 | 10.4 | 19.1 | 0.00 | 0.00 | 0.00 | 77 | 870.1 |
| 20260507063947 | 47 | 214 | 12.2 | 19.1 | 0.00 | 0.00 | 0.00 | 77 | 870.0 |
| 20260507063747 | 47 | 215 | 12.2 | 22.6 | 0.00 | 0.00 | 0.00 | 78 | 870.0 |
| 20260507063547 | 47 | 207 | 10.4 | 14.8 | 0.00 | 0.00 | 0.00 | 78 | 870.0 |
| 20260507063347 | 47 | 210 | 10.4 | 18.2 | 0.00 | 0.00 | 0.00 | 78 | 870.0 |
| 20260507063147 | 47 | 213 | 11.3 | 20.0 | 0.00 | 0.00 | 0.00 | 78 | 870.0 |
| 20260507062947 | 47 | 209 | 12.2 | 20.0 | 0.00 | 0.00 | 0.00 | 78 | 869.9 |
| 20260507062747 | 47 | 213 | 12.2 | 20.0 | 0.00 | 0.00 | 0.00 | 77 | 869.9 |
| 20260507062547 | 47 | 204 | 10.4 | 16.5 | 0.00 | 0.00 | 0.00 | 78 | 869.9 |
| 20260507062347 | 47 | 201 | 12.2 | 20.0 | 0.00 | 0.00 | 0.00 | 77 | 869.9 |
| 20260507062147 | 47 | 196 | 12.2 | 20.0 | 0.00 | 0.00 | 0.00 | 77 | 869.8 |
| 20260507061945 | 47 | 201 | 11.3 | 18.2 | 0.00 | 0.00 | 0.00 | 78 | 869.8 |
| 20260507061745 | 47 | 194 | 11.3 | 21.7 | 0.00 | 0.00 | 0.00 | 78 | 869.7 |
| 20260507061546 | 47 | 205 | 12.2 | 21.7 | 0.00 | 0.00 | 0.00 | 78 | 869.7 |
| 20260507061346 | 47 | 203 | 11.3 | 19.1 | 0.00 | 0.00 | 0.00 | 78 | 869.6 |
| 20260507061146 | 46 | 207 | 12.2 | 21.7 | 0.00 | 0.00 | 0.00 | 78 | 869.6 |
| 20260507060946 | 46 | 209 | 13.9 | 20.0 | 0.00 | 0.00 | 0.00 | 78 | 869.5 |
| 20260507060746 | 46 | 202 | 12.2 | 19.1 | 0.00 | 0.00 | 0.00 | 78 | 869.4 |
| 20260507060546 | 46 | 198 | 15.6 | 26.1 | 0.00 | 0.00 | 0.00 | 78 | 869.4 |
| 20260507060346 | 46 | 194 | 13.9 | 26.1 | 0.00 | 0.00 | 0.00 | 78 | 869.3 |
| 20260507060146 | 46 | 198 | 14.8 | 21.7 | 0.00 | 0.00 | 0.00 | 78 | 869.3 |
| 20260507055944 | 46 | 191 | 17.4 | 26.1 | 0.00 | 0.00 | 0.00 | 78 | 869.3 |
| 20260507055742 | 46 | 193 | 17.4 | 26.1 | 0.00 | 0.00 | 0.00 | 78 | 869.2 |
| 20260507055542 | 46 | 193 | 16.5 | 23.5 | 0.00 | 0.00 | 0.00 | 78 | 869.2 |
| 20260507055342 | 46 | 191 | 19.1 | 31.3 | 0.00 | 0.00 | 0.00 | 78 | 869.1 |
| 20260507055142 | 46 | 187 | 19.1 | 25.2 | 0.00 | 0.00 | 0.00 | 78 | 869.1 |
| 20260507054942 | 46 | 189 | 19.1 | 27.8 | 0.00 | 0.00 | 0.00 | 78 | 869.0 |
| 20260507054820 | 46 | 185 | 22.6 | 27.8 | 0.00 | 0.00 | 0.00 | 78 | 869.0 |
| 20260507054742 | 46 | 185 | 22.6 | 27.8 | 0.00 | 0.00 | 0.00 | 78 | 869.0 |
| 20260507054542 | 46 | 193 | 20.0 | 27.8 | 0.00 | 0.00 | 0.00 | 78 | 869.0 |
| 20260507054342 | 46 | 196 | 17.4 | 26.9 | 0.00 | 0.00 | 0.00 | 78 | 869.0 |
| 20260507054142 | 46 | 192 | 17.4 | 26.9 | 0.00 | 0.00 | 0.00 | 78 | 868.9 |
| 20260507053940 | 46 | 189 | 20.0 | 27.8 | 0.00 | 0.00 | 0.00 | 78 | 868.8 |
| 20260507053740 | 46 | 186 | 22.6 | 28.7 | 0.00 | 0.00 | 0.00 | 78 | 868.8 |
| 20260507053540 | 46 | 189 | 20.9 | 28.7 | 0.00 | 0.00 | 0.00 | 78 | 868.8 |
| 20260507053340 | 46 | 193 | 20.0 | 26.9 | 0.00 | 0.00 | 0.00 | 78 | 868.9 |
| 20260507053140 | 46 | 190 | 18.2 | 27.8 | 0.00 | 0.00 | 0.00 | 78 | 868.8 |
| 20260507052931 | 46 | 188 | 19.1 | 29.5 | 0.00 | 0.00 | 0.00 | 78 | 868.8 |
| 20260507052731 | 46 | 191 | 19.1 | 27.8 | 0.00 | 0.00 | 0.00 | 78 | 868.8 |
| 20260507052531 | 46 | 187 | 20.0 | 26.1 | 0.00 | 0.00 | 0.00 | 78 | 868.8 |
| 20260507052331 | 46 | 188 | 20.9 | 27.8 | 0.00 | 0.00 | 0.00 | 78 | 868.8 |
| 20260507052131 | 46 | 192 | 20.9 | 27.8 | 0.00 | 0.00 | 0.00 | 78 | 868.9 |
| 20260507051929 | 46 | 194 | 19.1 | 26.1 | 0.00 | 0.00 | 0.00 | 78 | 868.9 |
| 20260507051729 | 46 | 190 | 20.9 | 31.3 | 0.00 | 0.00 | 0.00 | 78 | 868.9 |
| 20260507051530 | 46 | 188 | 22.6 | 31.3 | 0.00 | 0.00 | 0.00 | 78 | 868.8 |
| 20260507051329 | 46 | 186 | 21.7 | 30.4 | 0.00 | 0.00 | 0.00 | 78 | 868.8 |
| 20260507051129 | 46 | 186 | 20.0 | 29.5 | 0.00 | 0.00 | 0.00 | 78 | 868.8 |
| 20260507050929 | 46 | 186 | 20.0 | 26.1 | 0.00 | 0.00 | 0.00 | 78 | 868.8 |
| 20260507050729 | 46 | 191 | 17.4 | 26.1 | 0.00 | 0.00 | 0.00 | 78 | 868.8 |
| 20260507050529 | 46 | 193 | 16.5 | 28.7 | 0.00 | 0.00 | 0.00 | 78 | 868.8 |
| 20260507050329 | 46 | 187 | 20.9 | 28.7 | 0.00 | 0.00 | 0.00 | 78 | 868.7 |
| 20260507050129 | 46 | 192 | 20.9 | 28.7 | 0.00 | 0.00 | 0.00 | 78 | 868.7 |
| 20260507045926 | 45 | 193 | 17.4 | 26.1 | 0.00 | 0.00 | 0.00 | 78 | 868.7 |
| 20260507045726 | 45 | 191 | 16.5 | 24.3 | 0.00 | 0.00 | 0.00 | 78 | 868.7 |
| 20260507045526 | 45 | 200 | 16.5 | 21.7 | 0.00 | 0.00 | 0.00 | 78 | 868.7 |
| 20260507045326 | 45 | 209 | 15.6 | 21.7 | 0.00 | 0.00 | 0.00 | 78 | 868.7 |
| 20260507045127 | 45 | 207 | 14.8 | 20.0 | 0.00 | 0.00 | 0.00 | 78 | 868.6 |
| 20260507044925 | 45 | 197 | 18.2 | 25.2 | 0.00 | 0.00 | 0.00 | 78 | 868.6 |
| 20260507044725 | 45 | 194 | 18.2 | 25.2 | 0.00 | 0.00 | 0.00 | 78 | 868.5 |
| 20260507044525 | 45 | 196 | 17.4 | 25.2 | 0.00 | 0.00 | 0.00 | 78 | 868.6 |
| 20260507044325 | 45 | 197 | 15.6 | 22.6 | 0.00 | 0.00 | 0.00 | 78 | 868.6 |
| 20260507044125 | 45 | 194 | 17.4 | 26.9 | 0.00 | 0.00 | 0.00 | 78 | 868.6 |
| 20260507043923 | 45 | 194 | 16.5 | 26.9 | 0.00 | 0.00 | 0.00 | 78 | 868.6 |
| 20260507043723 | 45 | 197 | 16.5 | 21.7 | 0.00 | 0.00 | 0.00 | 78 | 868.6 |
| 20260507043523 | 45 | 191 | 17.4 | 24.3 | 0.00 | 0.00 | 0.00 | 78 | 868.7 |
| 20260507043323 | 45 | 193 | 17.4 | 26.1 | 0.00 | 0.00 | 0.00 | 78 | 868.7 |
| 20260507043123 | 45 | 199 | 17.4 | 26.1 | 0.00 | 0.00 | 0.00 | 78 | 868.7 |
| 20260507042923 | 45 | 203 | 14.8 | 23.5 | 0.00 | 0.00 | 0.00 | 78 | 868.7 |
| 20260507042723 | 45 | 197 | 15.6 | 22.6 | 0.00 | 0.00 | 0.00 | 78 | 868.7 |
| 20260507042523 | 45 | 198 | 16.5 | 25.2 | 0.00 | 0.00 | 0.00 | 78 | 868.8 |
| 20260507042323 | 45 | 197 | 16.5 | 25.2 | 0.00 | 0.00 | 0.00 | 78 | 868.8 |
| 20260507042123 | 45 | 197 | 15.6 | 25.2 | 0.00 | 0.00 | 0.00 | 78 | 868.7 |
| 20260507041921 | 45 | 194 | 13.9 | 22.6 | 0.00 | 0.00 | 0.00 | 78 | 868.7 |
| 20260507041721 | 45 | 200 | 14.8 | 22.6 | 0.00 | 0.00 | 0.00 | 77 | 868.7 |
| 20260507041521 | 45 | 199 | 17.4 | 26.1 | 0.00 | 0.00 | 0.00 | 77 | 868.7 |
| 20260507041321 | 45 | 203 | 16.5 | 28.7 | 0.00 | 0.00 | 0.00 | 77 | 868.7 |
| 20260507041122 | 45 | 201 | 16.5 | 28.7 | 0.00 | 0.00 | 0.00 | 77 | 868.7 |
| 20260507040921 | 45 | 199 | 13.9 | 18.2 | 0.00 | 0.00 | 0.00 | 77 | 868.6 |
| 20260507040721 | 45 | 196 | 16.5 | 27.8 | 0.00 | 0.00 | 0.00 | 77 | 868.6 |
| 20260507040521 | 45 | 198 | 15.6 | 27.8 | 0.00 | 0.00 | 0.00 | 77 | 868.6 |
| 20260507040321 | 45 | 192 | 14.8 | 25.2 | 0.00 | 0.00 | 0.00 | 77 | 868.5 |
| 20260507040121 | 45 | 193 | 18.2 | 25.2 | 0.00 | 0.00 | 0.00 | 77 | 868.5 |
| 20260507035919 | 45 | 189 | 20.0 | 25.2 | 0.00 | 0.00 | 0.00 | 77 | 868.5 |
| 20260507035719 | 45 | 190 | 20.0 | 26.1 | 0.00 | 0.00 | 0.00 | 77 | 868.5 |
| 20260507035519 | 45 | 189 | 20.0 | 26.1 | 0.00 | 0.00 | 0.00 | 77 | 868.4 |
| 20260507035319 | 45 | 189 | 19.1 | 26.9 | 0.00 | 0.00 | 0.00 | 77 | 868.4 |
| 20260507035119 | 45 | 188 | 18.2 | 23.5 | 0.00 | 0.00 | 0.00 | 77 | 868.3 |
| 20260507034919 | 45 | 188 | 20.0 | 27.8 | 0.00 | 0.00 | 0.00 | 77 | 868.3 |
| 20260507034719 | 45 | 189 | 20.9 | 27.8 | 0.00 | 0.00 | 0.00 | 77 | 868.3 |
| 20260507034519 | 45 | 192 | 20.0 | 29.5 | 0.00 | 0.00 | 0.00 | 77 | 868.3 |
| 20260507034319 | 45 | 188 | 22.6 | 29.5 | 0.00 | 0.00 | 0.00 | 77 | 868.3 |
| 20260507034117 | 45 | 190 | 22.6 | 34.8 | 0.00 | 0.00 | 0.00 | 77 | 868.2 |
| 20260507033915 | 45 | 184 | 20.0 | 34.8 | 0.00 | 0.00 | 0.00 | 77 | 868.2 |
| 20260507033715 | 45 | 186 | 21.7 | 33.9 | 0.00 | 0.00 | 0.00 | 77 | 868.1 |
| 20260507033515 | 45 | 183 | 21.7 | 33.9 | 0.00 | 0.00 | 0.00 | 77 | 868.0 |
| 20260507033315 | 45 | 184 | 20.9 | 30.4 | 0.00 | 0.00 | 0.00 | 77 | 868.0 |
| 20260507033115 | 45 | 183 | 23.5 | 30.4 | 0.00 | 0.00 | 0.00 | 76 | 867.9 |
| 20260507032914 | 45 | 182 | 22.6 | 31.3 | 0.00 | 0.00 | 0.00 | 76 | 867.9 |
| 20260507032715 | 45 | 181 | 20.0 | 26.9 | 0.00 | 0.00 | 0.00 | 76 | 868.0 |
| 20260507032515 | 45 | 183 | 20.0 | 29.5 | 0.00 | 0.00 | 0.00 | 76 | 868.0 |
| 20260507032315 | 45 | 183 | 21.7 | 29.5 | 0.00 | 0.00 | 0.00 | 76 | 868.0 |
| 20260507032115 | 45 | 185 | 20.9 | 28.7 | 0.00 | 0.00 | 0.00 | 76 | 868.0 |
| 20260507031913 | 45 | 188 | 21.7 | 31.3 | 0.00 | 0.00 | 0.00 | 76 | 868.0 |
| 20260507031713 | 45 | 186 | 21.7 | 30.4 | 0.00 | 0.00 | 0.00 | 76 | 868.0 |
| 20260507031513 | 45 | 186 | 20.9 | 30.4 | 0.00 | 0.00 | 0.00 | 76 | 868.0 |
| 20260507031313 | 45 | 186 | 23.5 | 29.5 | 0.00 | 0.00 | 0.00 | 76 | 812.1 |
| 20260507031113 | 45 | 190 | 22.6 | 26.9 | 0.00 | 0.00 | 0.00 | 76 | 756.4 |
| 20260507030902 | 45 | 183 | 21.7 | 27.8 | 0.00 | 0.00 | 0.00 | 76 | 868.1 |
| 20260507030700 | 45 | 183 | 20.9 | 27.8 | 0.00 | 0.00 | 0.00 | 76 | 868.2 |
| 20260507030500 | 45 | 189 | 19.1 | 26.1 | 0.00 | 0.00 | 0.00 | 76 | 868.2 |
| 20260507030300 | 46 | 186 | 21.7 | 30.4 | 0.00 | 0.00 | 0.00 | 76 | 868.1 |
| 20260507030100 | 46 | 185 | 22.6 | 33.0 | 0.00 | 0.00 | 0.00 | 76 | 868.1 |
| 20260507025900 | 46 | 183 | 20.9 | 30.4 | 0.00 | 0.00 | 0.00 | 76 | 868.2 |
| 20260507025700 | 46 | 183 | 22.6 | 33.0 | 0.00 | 0.00 | 0.00 | 75 | 868.1 |
| 20260507025500 | 46 | 184 | 20.0 | 24.3 | 0.00 | 0.00 | 0.00 | 75 | 868.2 |
| 20260507025300 | 46 | 182 | 21.7 | 33.0 | 0.00 | 0.00 | 0.00 | 75 | 868.1 |
| 20260507025100 | 46 | 182 | 22.6 | 33.0 | 0.00 | 0.00 | 0.00 | 75 | 868.2 |
| 20260507024859 | 46 | 183 | 23.5 | 32.2 | 0.00 | 0.00 | 0.00 | 75 | 868.2 |
| 20260507024659 | 46 | 182 | 21.7 | 32.2 | 0.00 | 0.00 | 0.00 | 75 | 868.1 |
| 20260507024459 | 46 | 182 | 20.0 | 28.7 | 0.00 | 0.00 | 0.00 | 75 | 868.2 |
| 20260507024259 | 46 | 177 | 20.0 | 28.7 | 0.00 | 0.00 | 0.00 | 75 | 868.2 |
| 20260507024059 | 46 | 172 | 21.7 | 29.5 | 0.00 | 0.00 | 0.00 | 75 | 868.3 |
| 20260507023859 | 46 | 174 | 20.0 | 27.8 | 0.00 | 0.00 | 0.00 | 75 | 868.3 |
| 20260507023659 | 46 | 182 | 20.9 | 26.9 | 0.00 | 0.00 | 0.00 | 75 | 868.3 |
| 20260507023459 | 46 | 175 | 20.9 | 26.9 | 0.00 | 0.00 | 0.00 | 75 | 868.3 |
| 20260507023259 | 46 | 180 | 20.0 | 26.1 | 0.00 | 0.00 | 0.00 | 75 | 868.3 |
| 20260507023059 | 46 | 178 | 17.4 | 24.3 | 0.00 | 0.00 | 0.00 | 75 | 868.3 |
| 20260507022857 | 46 | 175 | 17.4 | 24.3 | 0.00 | 0.00 | 0.00 | 75 | 868.3 |
| 20260507022657 | 46 | 172 | 18.2 | 28.7 | 0.00 | 0.00 | 0.00 | 75 | 868.3 |
| 20260507022457 | 46 | 174 | 19.1 | 28.7 | 0.00 | 0.00 | 0.00 | 75 | 868.3 |
| 20260507022257 | 46 | 175 | 18.2 | 31.3 | 0.00 | 0.00 | 0.00 | 75 | 868.3 |
| 20260507022057 | 46 | 180 | 20.9 | 31.3 | 0.00 | 0.00 | 0.00 | 75 | 868.3 |
| 20260507021857 | 46 | 172 | 18.2 | 31.3 | 0.00 | 0.00 | 0.00 | 75 | 868.3 |
| 20260507021657 | 46 | 167 | 18.2 | 31.3 | 0.00 | 0.00 | 0.00 | 74 | 868.2 |
| 20260507021457 | 46 | 172 | 20.0 | 26.1 | 0.00 | 0.00 | 0.00 | 74 | 868.2 |
| 20260507021257 | 46 | 172 | 19.1 | 23.5 | 0.00 | 0.00 | 0.00 | 74 | 868.2 |
| 20260507021057 | 46 | 177 | 20.9 | 30.4 | 0.00 | 0.00 | 0.00 | 74 | 868.2 |
| 20260507020855 | 46 | 182 | 20.9 | 28.7 | 0.00 | 0.00 | 0.00 | 74 | 868.2 |
| 20260507020655 | 46 | 178 | 22.6 | 31.3 | 0.00 | 0.00 | 0.00 | 74 | 868.1 |
| 20260507020455 | 46 | 180 | 20.9 | 31.3 | 0.00 | 0.00 | 0.00 | 74 | 868.1 |
| 20260507020255 | 46 | 175 | 20.9 | 29.5 | 0.00 | 0.00 | 0.00 | 74 | 868.1 |
| 20260507020055 | 46 | 172 | 20.9 | 29.5 | 0.00 | 0.00 | 0.00 | 74 | 868.1 |
| 20260507015853 | 46 | 174 | 18.2 | 24.3 | 0.00 | 0.00 | 0.00 | 74 | 868.3 |
| 20260507015653 | 46 | 179 | 17.4 | 22.6 | 0.00 | 0.00 | 0.00 | 74 | 868.3 |
| 20260507015453 | 46 | 178 | 16.5 | 23.5 | 0.00 | 0.00 | 0.00 | 74 | 868.3 |
| 20260507015253 | 46 | 175 | 16.5 | 24.3 | 0.00 | 0.00 | 0.00 | 74 | 868.2 |
| 20260507015053 | 46 | 177 | 19.1 | 27.8 | 0.00 | 0.00 | 0.00 | 74 | 868.2 |
| 20260507014851 | 46 | 173 | 22.6 | 28.7 | 0.00 | 0.00 | 0.00 | 74 | 868.1 |
| 20260507014651 | 46 | 172 | 20.9 | 31.3 | 0.00 | 0.00 | 0.00 | 74 | 868.0 |
| 20260507014451 | 46 | 171 | 19.1 | 29.5 | 0.00 | 0.00 | 0.00 | 74 | 868.0 |
| 20260507014251 | 46 | 166 | 21.7 | 29.5 | 0.00 | 0.00 | 0.00 | 74 | 868.0 |
| 20260507014051 | 46 | 161 | 19.1 | 29.5 | 0.00 | 0.00 | 0.00 | 74 | 868.0 |
| 20260507013851 | 46 | 169 | 20.9 | 28.7 | 0.00 | 0.00 | 0.00 | 74 | 868.1 |
| 20260507013651 | 46 | 177 | 20.0 | 28.7 | 0.00 | 0.00 | 0.00 | 73 | 868.2 |
| 20260507013451 | 46 | 180 | 18.2 | 27.8 | 0.00 | 0.00 | 0.00 | 73 | 868.3 |
| 20260507013252 | 46 | 176 | 20.0 | 27.8 | 0.00 | 0.00 | 0.00 | 73 | 868.4 |
| 20260507013050 | 46 | 178 | 18.2 | 22.6 | 0.00 | 0.00 | 0.00 | 73 | 868.5 |
| 20260507012848 | 46 | 182 | 19.1 | 25.2 | 0.00 | 0.00 | 0.00 | 73 | 868.5 |
| 20260507012648 | 46 | 180 | 17.4 | 24.3 | 0.00 | 0.00 | 0.00 | 73 | 868.5 |
| 20260507012448 | 46 | 177 | 17.4 | 24.3 | 0.00 | 0.00 | 0.00 | 73 | 868.5 |
| 20260507012248 | 46 | 179 | 17.4 | 24.3 | 0.00 | 0.00 | 0.00 | 73 | 868.5 |
| 20260507012048 | 46 | 187 | 16.5 | 25.2 | 0.00 | 0.00 | 0.00 | 73 | 868.5 |
| 20260507011848 | 47 | 179 | 18.2 | 28.7 | 0.00 | 0.00 | 0.00 | 73 | 868.5 |
| 20260507011648 | 47 | 182 | 16.5 | 28.7 | 0.00 | 0.00 | 0.00 | 73 | 868.4 |
| 20260507011448 | 47 | 185 | 14.8 | 26.1 | 0.00 | 0.00 | 0.00 | 73 | 868.4 |
| 20260507011248 | 47 | 180 | 15.6 | 26.1 | 0.00 | 0.00 | 0.00 | 73 | 868.4 |
| 20260507011048 | 47 | 174 | 15.6 | 21.7 | 0.00 | 0.00 | 0.00 | 73 | 868.4 |
| 20260507010846 | 47 | 171 | 19.1 | 28.7 | 0.00 | 0.00 | 0.00 | 73 | 868.3 |
| 20260507010645 | 47 | 172 | 20.0 | 28.7 | 0.00 | 0.00 | 0.00 | 73 | 868.3 |
| 20260507010446 | 47 | 175 | 17.4 | 26.9 | 0.00 | 0.00 | 0.00 | 73 | 868.3 |
| 20260507010246 | 47 | 177 | 14.8 | 20.9 | 0.00 | 0.00 | 0.00 | 72 | 868.3 |
| 20260507010046 | 47 | 178 | 16.5 | 24.3 | 0.00 | 0.00 | 0.00 | 72 | 868.2 |
| 20260507005844 | 47 | 184 | 17.4 | 24.3 | 0.00 | 0.00 | 0.00 | 72 | 868.2 |
| 20260507005645 | 47 | 185 | 17.4 | 23.5 | 0.00 | 0.00 | 0.00 | 72 | 868.2 |
| 20260507005444 | 47 | 179 | 17.4 | 23.5 | 0.00 | 0.00 | 0.00 | 72 | 868.2 |
| 20260507005245 | 47 | 182 | 16.5 | 22.6 | 0.00 | 0.00 | 0.00 | 72 | 868.2 |
| 20260507005042 | 47 | 179 | 14.8 | 22.6 | 0.00 | 0.00 | 0.00 | 72 | 868.3 |
| 20260507004840 | 47 | 178 | 15.6 | 22.6 | 0.00 | 0.00 | 0.00 | 72 | 868.3 |
| 20260507004640 | 47 | 177 | 15.6 | 20.0 | 0.00 | 0.00 | 0.00 | 72 | 868.2 |
| 20260507004441 | 47 | 178 | 16.5 | 26.9 | 0.00 | 0.00 | 0.00 | 72 | 868.2 |
| 20260507004240 | 47 | 178 | 20.9 | 33.9 | 0.00 | 0.00 | 0.00 | 72 | 868.2 |
| 20260507004040 | 47 | 184 | 19.1 | 33.9 | 0.00 | 0.00 | 0.00 | 72 | 868.2 |
| 20260507003831 | 47 | 184 | 13.9 | 22.6 | 0.00 | 0.00 | 0.00 | 72 | 868.3 |
| 20260507003631 | 47 | 175 | 15.6 | 20.9 | 0.00 | 0.00 | 0.00 | 72 | 868.3 |
| 20260507003431 | 47 | 180 | 14.8 | 21.7 | 0.00 | 0.00 | 0.00 | 72 | 868.3 |
| 20260507003231 | 47 | 180 | 15.6 | 23.5 | 0.00 | 0.00 | 0.00 | 72 | 868.3 |
| 20260507003031 | 47 | 174 | 16.5 | 23.5 | 0.00 | 0.00 | 0.00 | 72 | 868.3 |
| 20260507002829 | 47 | 175 | 12.2 | 21.7 | 0.00 | 0.00 | 0.00 | 72 | 868.3 |
| 20260507002629 | 47 | 175 | 15.6 | 26.9 | 0.00 | 0.00 | 0.00 | 72 | 868.2 |
| 20260507002429 | 47 | 168 | 17.4 | 31.3 | 0.00 | 0.00 | 0.00 | 72 | 868.1 |
| 20260507002229 | 47 | 172 | 15.6 | 31.3 | 0.00 | 0.00 | 0.00 | 72 | 868.2 |
| 20260507002029 | 48 | 177 | 10.4 | 16.5 | 0.00 | 0.00 | 0.00 | 71 | 868.2 |
| 20260507001827 | 48 | 175 | 14.8 | 26.9 | 0.00 | 0.00 | 0.00 | 72 | 868.2 |
| 20260507001627 | 48 | 175 | 19.1 | 28.7 | 0.00 | 0.00 | 0.00 | 72 | 868.2 |
| 20260507001427 | 48 | 183 | 17.4 | 36.5 | 0.00 | 0.00 | 0.00 | 71 | 868.2 |
| 20260507001227 | 48 | 182 | 17.4 | 36.5 | 0.00 | 0.00 | 0.00 | 71 | 868.1 |
| 20260507001027 | 48 | 180 | 18.2 | 32.2 | 0.00 | 0.00 | 0.00 | 71 | 868.1 |
| 20260507000825 | 48 | 175 | 20.0 | 32.2 | 0.00 | 0.00 | 0.00 | 71 | 868.1 |
| 20260507000427 | 48 | 180 | 17.4 | 25.2 | 0.00 | 0.00 | 0.00 | 71 | 868.1 |
| 20260507000226 | 48 | 182 | 18.2 | 28.7 | 0.00 | 0.00 | 0.00 | 71 | 868.1 |
| 20260507000025 | 48 | 183 | 18.2 | 28.7 | 0.00 | 0.00 | 0.00 | 71 | 868.1 |
| 20260506235825 | 48 | 178 | 17.4 | 21.7 | 0.00 | 0.00 | 0.00 | 71 | 868.1 |
| 20260506235625 | 48 | 173 | 18.2 | 24.3 | 0.00 | 0.00 | 0.00 | 71 | 868.1 |
| 20260506235425 | 48 | 169 | 14.8 | 21.7 | 0.00 | 0.00 | 0.00 | 71 | 868.0 |
| 20260506235225 | 48 | 171 | 15.6 | 25.2 | 0.00 | 0.00 | 0.00 | 71 | 868.0 |
| 20260506235025 | 48 | 171 | 17.4 | 28.7 | 0.00 | 0.00 | 0.00 | 71 | 868.0 |
| 20260506234823 | 48 | 173 | 19.1 | 28.7 | 0.00 | 0.00 | 0.00 | 71 | 868.0 |
| 20260506234623 | 48 | 174 | 18.2 | 25.2 | 0.00 | 0.00 | 0.00 | 71 | 868.0 |
| 20260506234423 | 48 | 173 | 16.5 | 25.2 | 0.00 | 0.00 | 0.00 | 71 | 868.0 |
| 20260506234221 | 48 | 168 | 17.4 | 21.7 | 0.00 | 0.00 | 0.00 | 71 | 868.0 |
| 20260506234021 | 48 | 173 | 18.2 | 25.2 | 0.00 | 0.00 | 0.00 | 71 | 868.0 |
| 20260506233821 | 48 | 170 | 19.1 | 29.5 | 0.00 | 0.00 | 0.00 | 71 | 868.0 |
| 20260506233621 | 48 | 167 | 20.9 | 33.0 | 0.00 | 0.00 | 0.00 | 71 | 868.0 |
| 20260506233421 | 48 | 168 | 22.6 | 33.0 | 0.00 | 0.00 | 0.00 | 71 | 868.1 |
| 20260506233222 | 48 | 170 | 17.4 | 30.4 | 0.00 | 0.00 | 0.00 | 71 | 868.1 |
| 20260506233022 | 48 | 171 | 17.4 | 28.7 | 0.00 | 0.00 | 0.00 | 71 | 868.1 |
| 20260506232820 | 48 | 172 | 19.1 | 28.7 | 0.00 | 0.00 | 0.00 | 71 | 868.1 |
| 20260506232619 | 49 | 172 | 20.9 | 33.0 | 0.00 | 0.00 | 0.00 | 71 | 868.1 |
| 20260506232419 | 49 | 175 | 20.0 | 33.0 | 0.00 | 0.00 | 0.00 | 71 | 868.1 |
| 20260506232219 | 49 | 172 | 17.4 | 26.1 | 0.00 | 0.00 | 0.00 | 71 | 868.2 |
| 20260506232019 | 49 | 168 | 16.5 | 22.6 | 0.00 | 0.00 | 0.00 | 70 | 868.2 |
| 20260506231819 | 49 | 166 | 16.5 | 22.6 | 0.00 | 0.00 | 0.00 | 70 | 868.2 |
| 20260506231619 | 49 | 158 | 17.4 | 24.3 | 0.00 | 0.00 | 0.00 | 70 | 868.2 |
| 20260506231419 | 49 | 169 | 18.2 | 25.2 | 0.00 | 0.00 | 0.00 | 70 | 868.2 |
| 20260506231219 | 49 | 177 | 19.1 | 26.9 | 0.00 | 0.00 | 0.00 | 70 | 868.3 |
| 20260506231019 | 49 | 170 | 13.9 | 21.7 | 0.00 | 0.00 | 0.00 | 70 | 868.4 |
| 20260506230818 | 49 | 167 | 12.2 | 15.6 | 0.00 | 0.00 | 0.00 | 70 | 868.4 |
| 20260506230618 | 49 | 160 | 11.3 | 15.6 | 0.00 | 0.00 | 0.00 | 70 | 868.4 |
| 20260506230418 | 49 | 160 | 13.0 | 17.4 | 0.00 | 0.00 | 0.00 | 70 | 868.4 |
| 20260506230218 | 49 | 163 | 13.0 | 17.4 | 0.00 | 0.00 | 0.00 | 70 | 868.4 |
| 20260506230018 | 49 | 158 | 10.4 | 16.5 | 0.00 | 0.00 | 0.00 | 70 | 868.4 |
| 20260506225817 | 49 | 157 | 14.8 | 19.1 | 0.00 | 0.00 | 0.00 | 70 | 868.3 |
| 20260506225617 | 49 | 162 | 17.4 | 25.2 | 0.00 | 0.00 | 0.00 | 70 | 868.1 |
| 20260506225417 | 49 | 167 | 20.9 | 30.4 | 0.00 | 0.00 | 0.00 | 70 | 868.1 |
| 20260506225218 | 49 | 164 | 18.2 | 28.7 | 0.00 | 0.00 | 0.00 | 70 | 868.2 |
| 20260506225018 | 49 | 159 | 19.1 | 33.0 | 0.00 | 0.00 | 0.00 | 70 | 868.2 |
| 20260506224816 | 49 | 156 | 15.6 | 22.6 | 0.00 | 0.00 | 0.00 | 70 | 868.2 |
| 20260506224616 | 49 | 154 | 14.8 | 23.5 | 0.00 | 0.00 | 0.00 | 70 | 868.1 |
| 20260506224416 | 49 | 159 | 18.2 | 30.4 | 0.00 | 0.00 | 0.00 | 69 | 868.1 |
| 20260506224216 | 49 | 160 | 16.5 | 29.5 | 0.00 | 0.00 | 0.00 | 70 | 868.2 |
| 20260506224016 | 49 | 154 | 18.2 | 29.5 | 0.00 | 0.00 | 0.00 | 69 | 868.2 |
| 20260506223816 | 49 | 161 | 18.2 | 26.9 | 0.00 | 0.00 | 0.00 | 69 | 868.2 |
| 20260506223616 | 49 | 159 | 17.4 | 26.1 | 0.00 | 0.00 | 0.00 | 69 | 868.2 |
| 20260506223414 | 49 | 156 | 14.8 | 24.3 | 0.00 | 0.00 | 0.00 | 69 | 868.2 |
| 20260506223214 | 50 | 164 | 15.6 | 29.5 | 0.00 | 0.00 | 0.00 | 69 | 868.1 |
| 20260506223014 | 50 | 157 | 17.4 | 24.3 | 0.00 | 0.00 | 0.00 | 69 | 868.1 |
| 20260506222812 | 50 | 161 | 17.4 | 24.3 | 0.00 | 0.00 | 0.00 | 69 | 868.2 |
| 20260506222612 | 50 | 168 | 17.4 | 23.5 | 0.00 | 0.00 | 0.00 | 69 | 868.3 |
| 20260506222412 | 50 | 171 | 14.8 | 21.7 | 0.00 | 0.00 | 0.00 | 69 | 868.3 |
| 20260506222212 | 50 | 168 | 17.4 | 34.8 | 0.00 | 0.00 | 0.00 | 69 | 868.3 |
| 20260506222012 | 50 | 168 | 20.0 | 34.8 | 0.00 | 0.00 | 0.00 | 69 | 868.3 |
| 20260506221812 | 50 | 162 | 16.5 | 26.1 | 0.00 | 0.00 | 0.00 | 69 | 868.3 |
| 20260506221612 | 50 | 155 | 15.6 | 24.3 | 0.00 | 0.00 | 0.00 | 69 | 868.3 |
| 20260506221412 | 50 | 160 | 14.8 | 23.5 | 0.00 | 0.00 | 0.00 | 69 | 868.3 |
| 20260506221212 | 50 | 153 | 17.4 | 25.2 | 0.00 | 0.00 | 0.00 | 69 | 868.2 |
| 20260506221012 | 50 | 159 | 20.0 | 31.3 | 0.00 | 0.00 | 0.00 | 68 | 868.2 |
| 20260506220801 | 50 | 158 | 19.1 | 31.3 | 0.00 | 0.00 | 0.00 | 68 | 868.2 |
| 20260506220601 | 50 | 158 | 18.2 | 26.9 | 0.00 | 0.00 | 0.00 | 68 | 868.3 |
| 20260506220401 | 50 | 153 | 17.4 | 26.9 | 0.00 | 0.00 | 0.00 | 68 | 868.3 |
| 20260506220201 | 50 | 154 | 18.2 | 25.2 | 0.00 | 0.00 | 0.00 | 68 | 868.2 |
| 20260506220001 | 50 | 157 | 20.0 | 33.9 | 0.00 | 0.00 | 0.00 | 68 | 868.2 |
| 20260506215801 | 50 | 160 | 17.4 | 28.7 | 0.00 | 0.00 | 0.00 | 68 | 868.2 |
| 20260506215601 | 50 | 158 | 22.6 | 37.4 | 0.00 | 0.00 | 0.00 | 68 | 868.2 |
| 20260506215401 | 50 | 150 | 20.0 | 37.4 | 0.00 | 0.00 | 0.00 | 68 | 868.2 |
| 20260506215201 | 50 | 150 | 17.4 | 26.1 | 0.00 | 0.00 | 0.00 | 68 | 868.3 |
| 20260506215001 | 50 | 149 | 17.4 | 24.3 | 0.00 | 0.00 | 0.00 | 68 | 868.3 |
| 20260506214759 | 50 | 152 | 17.4 | 26.1 | 0.00 | 0.00 | 0.00 | 68 | 868.3 |
| 20260506214559 | 50 | 156 | 16.5 | 26.1 | 0.00 | 0.00 | 0.00 | 68 | 868.4 |
| 20260506214359 | 50 | 156 | 13.9 | 24.3 | 0.00 | 0.00 | 0.00 | 68 | 868.4 |
| 20260506214159 | 50 | 154 | 14.8 | 20.0 | 0.00 | 0.00 | 0.00 | 68 | 868.4 |
| 20260506213959 | 50 | 155 | 15.6 | 24.3 | 0.00 | 0.00 | 0.00 | 68 | 868.4 |
| 20260506213759 | 50 | 152 | 13.0 | 22.6 | 0.00 | 0.00 | 0.00 | 68 | 868.4 |
| 20260506213559 | 50 | 159 | 15.6 | 25.2 | 0.00 | 0.00 | 0.00 | 68 | 868.4 |
| 20260506213359 | 50 | 161 | 17.4 | 27.8 | 0.00 | 0.00 | 0.00 | 67 | 868.4 |
| 20260506213159 | 50 | 161 | 14.8 | 22.6 | 0.00 | 0.00 | 0.00 | 67 | 868.3 |
| 20260506212959 | 50 | 167 | 14.8 | 22.6 | 0.00 | 0.00 | 0.00 | 67 | 868.3 |
| 20260506212757 | 50 | 171 | 12.2 | 20.0 | 0.00 | 0.00 | 0.00 | 67 | 868.4 |
| 20260506212555 | 50 | 169 | 13.0 | 20.9 | 0.00 | 0.00 | 0.00 | 67 | 868.4 |
| 20260506212355 | 50 | 168 | 15.6 | 25.2 | 0.00 | 0.00 | 0.00 | 67 | 868.4 |
| 20260506212155 | 51 | 167 | 17.4 | 26.1 | 0.00 | 0.00 | 0.00 | 67 | 868.4 |
| 20260506211955 | 51 | 165 | 17.4 | 26.1 | 0.00 | 0.00 | 0.00 | 67 | 868.4 |
| 20260506211755 | 51 | 175 | 16.5 | 23.5 | 0.00 | 0.00 | 0.00 | 67 | 868.5 |
| 20260506211556 | 51 | 177 | 14.8 | 20.9 | 0.00 | 0.00 | 0.00 | 67 | 868.5 |
| 20260506211355 | 51 | 164 | 15.6 | 25.2 | 0.00 | 0.00 | 0.00 | 67 | 868.4 |
| 20260506211156 | 51 | 160 | 15.6 | 25.2 | 0.00 | 0.00 | 0.00 | 67 | 868.4 |
| 20260506210956 | 51 | 166 | 15.6 | 24.3 | 0.00 | 0.00 | 0.00 | 67 | 868.4 |
| 20260506210754 | 51 | 167 | 13.0 | 22.6 | 0.00 | 0.00 | 0.00 | 67 | 868.3 |
| 20260506210554 | 51 | 162 | 17.4 | 26.1 | 0.00 | 0.00 | 0.00 | 67 | 868.2 |
| 20260506210354 | 51 | 169 | 20.9 | 27.8 | 0.00 | 0.00 | 0.00 | 67 | 868.2 |
| 20260506210154 | 51 | 170 | 16.5 | 27.8 | 0.00 | 0.00 | 0.00 | 67 | 868.2 |
| 20260506205954 | 51 | 159 | 16.5 | 24.3 | 0.00 | 0.00 | 0.00 | 67 | 868.2 |
| 20260506205754 | 51 | 157 | 16.5 | 25.2 | 0.00 | 0.00 | 0.00 | 66 | 868.2 |
| 20260506205554 | 51 | 156 | 15.6 | 23.5 | 0.00 | 0.00 | 0.00 | 66 | 868.2 |
| 20260506205354 | 51 | 164 | 17.4 | 25.2 | 0.00 | 0.00 | 0.00 | 66 | 868.2 |
| 20260506205154 | 51 | 159 | 17.4 | 26.1 | 0.00 | 0.00 | 0.00 | 66 | 868.2 |
| 20260506204954 | 51 | 154 | 17.4 | 25.2 | 0.00 | 0.00 | 0.00 | 66 | 868.1 |
| 20260506204752 | 51 | 161 | 20.9 | 33.0 | 0.00 | 0.00 | 0.00 | 66 | 868.0 |
| 20260506204552 | 51 | 164 | 20.9 | 33.0 | 0.00 | 0.00 | 0.00 | 66 | 868.1 |
| 20260506204352 | 51 | 158 | 20.0 | 31.3 | 0.00 | 0.00 | 0.00 | 66 | 868.0 |
| 20260506204152 | 51 | 158 | 20.9 | 31.3 | 0.00 | 0.00 | 0.00 | 66 | 867.9 |
| 20260506203952 | 51 | 163 | 20.0 | 33.0 | 0.00 | 0.00 | 0.00 | 66 | 868.0 |
| 20260506203752 | 51 | 158 | 18.2 | 37.4 | 0.00 | 0.00 | 0.00 | 66 | 868.1 |
| 20260506203552 | 51 | 156 | 18.2 | 37.4 | 0.00 | 0.00 | 0.00 | 66 | 868.1 |
| 20260506203352 | 51 | 160 | 18.2 | 25.2 | 0.00 | 0.00 | 0.00 | 66 | 868.1 |
| 20260506203152 | 51 | 159 | 18.2 | 24.3 | 0.00 | 0.00 | 0.00 | 65 | 868.1 |
| 20260506202952 | 51 | 157 | 19.1 | 31.3 | 0.00 | 0.00 | 0.00 | 65 | 868.1 |
| 20260506202750 | 52 | 156 | 17.4 | 23.5 | 0.00 | 0.00 | 0.00 | 65 | 868.1 |
| 20260506202550 | 52 | 157 | 17.4 | 24.3 | 0.00 | 0.00 | 0.00 | 65 | 868.1 |
| 20260506202350 | 52 | 158 | 19.1 | 29.5 | 0.00 | 0.00 | 0.00 | 65 | 868.1 |
| 20260506202150 | 52 | 164 | 17.4 | 26.1 | 0.00 | 0.00 | 0.00 | 65 | 868.2 |
| 20260506201950 | 52 | 157 | 15.6 | 23.5 | 0.00 | 0.00 | 0.00 | 65 | 868.2 |
| 20260506201748 | 52 | 162 | 19.1 | 23.5 | 0.00 | 0.00 | 0.00 | 65 | 868.2 |
| 20260506201548 | 52 | 160 | 20.9 | 30.4 | 0.00 | 0.00 | 0.00 | 65 | 868.2 |
| 20260506201348 | 52 | 154 | 18.2 | 30.4 | 0.00 | 0.00 | 0.00 | 65 | 868.2 |
| 20260506201148 | 52 | 154 | 17.4 | 33.0 | 0.00 | 0.00 | 0.00 | 65 | 868.2 |
| 20260506200948 | 52 | 159 | 17.4 | 26.9 | 0.00 | 0.00 | 0.00 | 64 | 868.3 |
| 20260506200746 | 52 | 163 | 16.5 | 24.3 | 0.00 | 0.00 | 0.00 | 65 | 868.3 |
| 20260506200546 | 52 | 160 | 19.1 | 28.7 | 0.00 | 0.00 | 0.00 | 65 | 868.3 |
| 20260506200346 | 52 | 161 | 19.1 | 28.7 | 0.00 | 0.00 | 0.00 | 64 | 868.4 |
| 20260506200146 | 52 | 144 | 13.9 | 21.7 | 0.00 | 0.00 | 0.00 | 64 | 868.4 |
| 20260506195946 | 52 | 145 | 16.5 | 33.0 | 0.00 | 0.00 | 0.00 | 64 | 868.4 |
| 20260506195746 | 52 | 150 | 16.5 | 25.2 | 0.00 | 0.00 | 0.00 | 64 | 868.3 |
| 20260506195546 | 52 | 158 | 15.6 | 25.2 | 0.00 | 0.00 | 0.00 | 64 | 868.4 |
| 20260506195346 | 52 | 152 | 13.9 | 20.0 | 0.00 | 0.00 | 0.00 | 64 | 868.5 |
| 20260506195147 | 52 | 146 | 14.8 | 20.0 | 0.00 | 0.00 | 0.00 | 64 | 868.5 |
| 20260506194946 | 52 | 153 | 15.6 | 33.0 | 0.00 | 0.00 | 0.00 | 64 | 868.5 |
| 20260506194745 | 52 | 154 | 15.6 | 23.5 | 0.00 | 0.00 | 0.00 | 64 | 868.5 |
| 20260506194545 | 52 | 152 | 17.4 | 28.7 | 0.00 | 0.00 | 0.00 | 64 | 868.5 |
| 20260506194345 | 52 | 149 | 15.6 | 26.9 | 0.00 | 0.00 | 0.00 | 64 | 868.5 |
| 20260506194145 | 52 | 154 | 14.8 | 21.7 | 0.00 | 0.00 | 0.00 | 64 | 868.6 |
| 20260506193945 | 52 | 155 | 13.9 | 20.9 | 0.00 | 0.00 | 0.00 | 64 | 868.6 |
| 20260506193735 | 52 | 159 | 14.8 | 22.6 | 0.00 | 0.00 | 0.00 | 63 | 868.6 |
| 20260506193535 | 52 | 149 | 13.9 | 22.6 | 0.00 | 0.00 | 0.00 | 63 | 868.7 |
| 20260506193336 | 52 | 153 | 13.9 | 21.7 | 0.00 | 0.00 | 0.00 | 63 | 868.7 |
| 20260506193136 | 52 | 151 | 12.2 | 19.1 | 0.00 | 0.00 | 0.00 | 63 | 868.7 |
| 20260506192936 | 52 | 145 | 10.4 | 21.7 | 0.00 | 0.00 | 0.00 | 63 | 868.7 |
| 20260506192733 | 52 | 143 | 11.3 | 21.7 | 0.00 | 0.00 | 0.00 | 63 | 868.7 |
| 20260506192533 | 52 | 153 | 13.9 | 21.7 | 0.00 | 0.00 | 0.00 | 63 | 868.7 |
| 20260506192333 | 52 | 148 | 9.6 | 13.9 | 0.00 | 0.00 | 0.00 | 63 | 868.7 |
| 20260506192133 | 52 | 148 | 10.4 | 14.8 | 0.00 | 0.00 | 0.00 | 63 | 868.7 |
| 20260506191933 | 52 | 145 | 10.4 | 14.8 | 0.00 | 0.00 | 0.00 | 63 | 868.7 |
| 20260506191733 | 52 | 130 | 9.6 | 13.9 | 0.00 | 0.00 | 0.00 | 63 | 868.7 |
| 20260506191534 | 52 | 134 | 9.6 | 13.9 | 0.00 | 0.00 | 0.00 | 63 | 868.7 |
| 20260506191333 | 52 | 133 | 9.6 | 13.0 | 0.00 | 0.00 | 0.00 | 63 | 868.7 |
| 20260506191133 | 52 | 136 | 9.6 | 13.9 | 0.00 | 0.00 | 0.00 | 63 | 868.7 |
| 20260506190931 | 52 | 137 | 11.3 | 19.1 | 0.00 | 0.00 | 0.00 | 63 | 868.8 |
| 20260506190729 | 52 | 131 | 10.4 | 15.6 | 0.00 | 0.00 | 0.00 | 63 | 868.8 |
| 20260506190530 | 52 | 128 | 8.7 | 13.9 | 0.00 | 0.00 | 0.00 | 63 | 868.8 |
| 20260506190330 | 53 | 135 | 8.7 | 17.4 | 0.00 | 0.00 | 0.00 | 63 | 868.8 |
| 20260506190129 | 52 | 124 | 6.1 | 13.0 | 0.00 | 0.00 | 0.00 | 63 | 868.8 |
| 20260506185929 | 53 | 115 | 9.6 | 13.9 | 0.00 | 0.00 | 0.00 | 63 | 868.7 |
| 20260506185729 | 53 | 123 | 10.4 | 16.5 | 0.00 | 0.00 | 0.00 | 63 | 868.7 |
| 20260506185530 | 53 | 140 | 9.6 | 13.9 | 0.00 | 0.00 | 0.00 | 63 | 868.7 |
| 20260506185329 | 53 | 134 | 8.7 | 12.2 | 0.00 | 0.00 | 0.00 | 63 | 868.8 |
| 20260506185129 | 53 | 125 | 9.6 | 13.0 | 0.00 | 0.00 | 0.00 | 62 | 868.8 |
| 20260506184930 | 53 | 122 | 9.6 | 17.4 | 0.00 | 0.00 | 0.00 | 62 | 868.8 |
| 20260506184728 | 53 | 132 | 10.4 | 17.4 | 0.00 | 0.00 | 0.00 | 62 | 868.7 |
| 20260506184528 | 53 | 139 | 10.4 | 17.4 | 0.00 | 0.00 | 0.00 | 62 | 868.7 |
| 20260506184328 | 53 | 144 | 12.2 | 19.1 | 0.00 | 0.00 | 0.00 | 62 | 868.6 |
| 20260506184128 | 53 | 142 | 13.9 | 20.9 | 0.00 | 0.00 | 0.00 | 62 | 868.6 |
| 20260506183928 | 53 | 137 | 12.2 | 19.1 | 0.00 | 0.00 | 0.00 | 62 | 868.7 |
| 20260506183726 | 53 | 126 | 12.2 | 17.4 | 0.00 | 0.00 | 0.00 | 62 | 868.6 |
| 20260506183526 | 53 | 134 | 13.0 | 20.0 | 0.00 | 0.00 | 0.00 | 62 | 868.7 |
| 20260506183326 | 53 | 128 | 9.6 | 13.9 | 0.00 | 0.00 | 0.00 | 62 | 868.6 |
| 20260506183126 | 53 | 127 | 9.6 | 14.8 | 0.00 | 0.00 | 0.00 | 62 | 868.6 |
| 20260506182926 | 53 | 129 | 10.4 | 19.1 | 0.00 | 0.00 | 0.00 | 62 | 868.6 |
| 20260506182724 | 53 | 139 | 11.3 | 19.1 | 0.00 | 0.00 | 0.00 | 62 | 868.6 |
| 20260506182524 | 53 | 142 | 10.4 | 16.5 | 0.00 | 0.00 | 0.00 | 62 | 868.7 |
| 20260506182324 | 53 | 146 | 13.9 | 20.9 | 0.00 | 0.00 | 0.00 | 62 | 868.6 |
| 20260506182124 | 53 | 141 | 13.9 | 20.0 | 0.00 | 0.00 | 0.00 | 62 | 868.6 |
| 20260506181924 | 53 | 140 | 13.9 | 21.7 | 0.00 | 0.00 | 0.00 | 62 | 868.6 |
| 20260506181724 | 53 | 144 | 12.2 | 17.4 | 0.00 | 0.00 | 0.00 | 62 | 868.6 |
| 20260506181524 | 53 | 139 | 12.2 | 18.2 | 0.00 | 0.00 | 0.00 | 62 | 868.6 |
| 20260506181324 | 53 | 145 | 12.2 | 19.1 | 0.00 | 0.00 | 0.00 | 62 | 868.6 |
| 20260506181124 | 53 | 156 | 11.3 | 19.1 | 0.00 | 0.00 | 0.00 | 62 | 868.6 |
| 20260506180924 | 53 | 146 | 7.0 | 15.6 | 0.00 | 0.00 | 0.00 | 62 | 868.7 |
| 20260506180722 | 53 | 134 | 8.7 | 12.2 | 0.00 | 0.00 | 0.00 | 61 | 868.8 |
| 20260506180522 | 54 | 130 | 7.0 | 12.2 | 0.00 | 0.00 | 0.00 | 61 | 868.8 |
| 20260506180322 | 54 | 120 | 7.8 | 11.3 | 0.00 | 0.00 | 0.00 | 61 | 868.8 |
| 20260506180120 | 54 | 126 | 10.4 | 16.5 | 0.00 | 0.00 | 0.00 | 61 | 868.7 |
| 20260506175920 | 54 | 133 | 9.6 | 15.6 | 0.00 | 0.00 | 0.00 | 61 | 868.8 |
| 20260506175720 | 54 | 135 | 10.4 | 15.6 | 0.00 | 0.00 | 0.00 | 61 | 868.8 |
| 20260506175520 | 54 | 115 | 8.7 | 15.6 | 0.00 | 0.00 | 0.00 | 61 | 868.9 |
| 20260506175320 | 54 | 107 | 7.0 | 11.3 | 0.00 | 0.00 | 0.00 | 61 | 868.9 |
| 20260506175120 | 54 | 131 | 10.4 | 15.6 | 0.00 | 0.00 | 0.00 | 61 | 868.9 |
| 20260506174920 | 54 | 140 | 7.0 | 13.9 | 0.00 | 0.00 | 0.00 | 61 | 868.9 |
| 20260506174718 | 54 | 147 | 7.0 | 12.2 | 0.00 | 0.00 | 0.00 | 61 | 869.0 |
| 20260506174518 | 54 | 110 | 7.8 | 12.2 | 0.00 | 0.00 | 0.00 | 61 | 869.0 |
| 20260506174319 | 54 | 122 | 7.8 | 15.6 | 0.00 | 0.00 | 0.00 | 61 | 869.0 |
| 20260506174118 | 54 | 120 | 7.0 | 10.4 | 0.00 | 0.00 | 0.00 | 61 | 868.9 |
| 20260506173918 | 54 | 133 | 7.8 | 13.9 | 0.00 | 0.00 | 0.00 | 61 | 868.9 |
| 20260506173718 | 54 | 119 | 5.2 | 13.9 | 0.00 | 0.00 | 0.00 | 61 | 869.0 |
| 20260506173518 | 54 | 114 | 7.8 | 14.8 | 0.00 | 0.00 | 0.00 | 61 | 868.9 |
| 20260506173318 | 54 | 119 | 7.8 | 14.8 | 0.00 | 0.00 | 0.00 | 61 | 869.0 |
| 20260506173118 | 54 | 105 | 7.8 | 12.2 | 0.00 | 0.00 | 0.00 | 61 | 869.0 |
| 20260506172918 | 54 | 118 | 9.6 | 12.2 | 0.00 | 0.00 | 0.00 | 60 | 868.9 |
| 20260506172716 | 55 | 136 | 10.4 | 17.4 | 0.00 | 0.00 | 0.00 | 60 | 869.0 |
| 20260506172516 | 55 | 135 | 6.1 | 10.4 | 0.00 | 0.00 | 0.00 | 60 | 869.0 |
| 20260506172316 | 55 | 138 | 7.8 | 13.9 | 0.00 | 0.00 | 0.00 | 60 | 869.0 |
| 20260506172116 | 55 | 142 | 8.7 | 13.9 | 0.00 | 0.00 | 0.00 | 60 | 869.0 |
| 20260506171916 | 55 | 139 | 8.7 | 16.5 | 0.00 | 0.00 | 0.00 | 60 | 869.0 |
| 20260506171717 | 55 | 145 | 6.1 | 12.2 | 0.00 | 0.00 | 0.00 | 60 | 869.0 |
| 20260506171517 | 55 | 131 | 5.2 | 11.3 | 0.00 | 0.00 | 0.00 | 60 | 869.0 |
| 20260506171317 | 55 | 128 | 7.0 | 11.3 | 0.00 | 0.00 | 0.00 | 60 | 869.0 |
| 20260506171117 | 55 | 135 | 7.0 | 11.3 | 0.00 | 0.00 | 0.00 | 60 | 869.1 |
| 20260506170917 | 55 | 142 | 8.7 | 17.4 | 0.00 | 0.00 | 0.00 | 60 | 869.0 |
| 20260506170705 | 55 | 142 | 10.4 | 17.4 | 0.00 | 0.00 | 0.00 | 60 | 869.0 |
| 20260506170505 | 55 | 151 | 13.0 | 26.1 | 0.00 | 0.00 | 0.00 | 60 | 869.0 |
| 20260506170305 | 56 | 151 | 10.4 | 26.1 | 0.00 | 0.00 | 0.00 | 60 | 869.1 |
| 20260506170106 | 56 | 143 | 9.6 | 15.6 | 0.00 | 0.00 | 0.00 | 60 | 869.1 |
| 20260506165906 | 56 | 143 | 11.3 | 18.2 | 0.00 | 0.00 | 0.00 | 60 | 869.1 |
| 20260506165705 | 56 | 146 | 10.4 | 18.2 | 0.00 | 0.00 | 0.00 | 60 | 869.1 |
| 20260506165505 | 56 | 159 | 8.7 | 13.0 | 0.00 | 0.00 | 0.00 | 60 | 869.1 |
| 20260506165305 | 55 | 154 | 8.7 | 15.6 | 0.00 | 0.00 | 0.00 | 60 | 869.0 |
| 20260506165104 | 56 | 151 | 13.0 | 17.4 | 0.00 | 0.00 | 0.00 | 60 | 869.0 |
| 20260506164903 | 56 | 153 | 13.0 | 19.1 | 0.00 | 0.00 | 0.00 | 60 | 869.0 |
| 20260506164701 | 56 | 159 | 13.0 | 19.1 | 0.00 | 0.00 | 0.00 | 60 | 869.0 |
| 20260506164502 | 56 | 162 | 13.0 | 19.1 | 0.00 | 0.00 | 0.00 | 60 | 869.0 |
| 20260506164301 | 56 | 158 | 13.0 | 17.4 | 0.00 | 0.00 | 0.00 | 60 | 869.0 |
| 20260506164102 | 56 | 158 | 13.9 | 19.1 | 0.00 | 0.00 | 0.00 | 60 | 868.9 |
| 20260506163901 | 56 | 153 | 12.2 | 21.7 | 0.00 | 0.00 | 0.00 | 60 | 868.9 |
| 20260506163701 | 56 | 159 | 13.0 | 24.3 | 0.00 | 0.00 | 0.00 | 60 | 868.9 |
| 20260506163501 | 56 | 158 | 13.0 | 24.3 | 0.00 | 0.00 | 0.00 | 60 | 869.0 |
| 20260506163301 | 56 | 150 | 11.3 | 18.2 | 0.00 | 0.00 | 0.00 | 60 | 869.1 |
| 20260506163101 | 56 | 151 | 10.4 | 14.8 | 0.00 | 0.00 | 0.00 | 60 | 869.1 |
| 20260506162901 | 56 | 149 | 8.7 | 14.8 | 0.00 | 0.00 | 0.00 | 60 | 869.1 |
| 20260506162659 | 56 | 165 | 10.4 | 17.4 | 0.00 | 0.00 | 0.00 | 60 | 869.1 |
| 20260506162523 | 56 | 169 | 9.6 | 12.2 | 0.00 | 0.00 | 0.00 | 60 | 869.3 |
| 20260506162459 | 56 | 173 | 13.9 | 22.6 | 0.00 | 0.00 | 0.00 | 60 | 869.1 |
| 20260506162259 | 56 | 177 | 13.9 | 22.6 | 0.00 | 0.00 | 0.00 | 60 | 869.2 |
| 20260506162059 | 56 | 173 | 10.4 | 16.5 | 0.00 | 0.00 | 0.00 | 60 | 869.3 |
| 20260506161859 | 56 | 169 | 9.6 | 12.2 | 0.00 | 0.00 | 0.00 | 60 | 869.3 |
| 20260506161659 | 56 | 166 | 10.4 | 17.4 | 0.00 | 0.00 | 0.00 | 60 | 869.3 |
| 20260506161459 | 57 | 161 | 10.4 | 17.4 | 0.00 | 0.00 | 0.00 | 60 | 869.3 |
| 20260506161259 | 57 | 173 | 8.7 | 13.9 | 0.00 | 0.00 | 0.00 | 59 | 869.3 |
| 20260506161059 | 57 | 172 | 10.4 | 16.5 | 0.00 | 0.00 | 0.00 | 59 | 869.4 |
| 20260506160859 | 57 | 168 | 12.2 | 18.2 | 0.00 | 0.00 | 0.00 | 59 | 869.4 |
| 20260506160657 | 57 | 165 | 8.7 | 18.2 | 0.00 | 0.00 | 0.00 | 59 | 869.4 |
| 20260506160457 | 57 | 160 | 9.6 | 15.6 | 0.00 | 0.00 | 0.00 | 59 | 869.4 |
| 20260506160257 | 58 | 165 | 10.4 | 15.6 | 0.00 | 0.00 | 0.00 | 59 | 869.3 |
| 20260506160057 | 58 | 169 | 12.2 | 18.2 | 0.00 | 0.00 | 0.00 | 59 | 869.3 |
| 20260506155857 | 58 | 161 | 10.4 | 15.6 | 0.00 | 0.00 | 0.00 | 59 | 869.4 |
| 20260506155657 | 58 | 168 | 11.3 | 20.0 | 0.00 | 0.00 | 0.00 | 59 | 869.4 |
| 20260506155457 | 59 | 164 | 12.2 | 18.2 | 0.00 | 0.00 | 0.00 | 59 | 869.4 |
| 20260506155257 | 59 | 164 | 12.2 | 18.2 | 0.00 | 0.00 | 0.00 | 59 | 869.4 |
| 20260506155057 | 59 | 168 | 12.2 | 16.5 | 0.00 | 0.00 | 0.00 | 59 | 869.4 |
| 20260506154858 | 59 | 166 | 13.9 | 18.2 | 0.00 | 0.00 | 0.00 | 59 | 869.4 |
| 20260506154656 | 60 | 155 | 12.2 | 17.4 | 0.00 | 0.00 | 0.00 | 59 | 869.4 |
| 20260506154454 | 60 | 155 | 8.7 | 17.4 | 0.00 | 0.00 | 0.00 | 59 | 869.5 |
| 20260506154254 | 60 | 166 | 8.7 | 12.2 | 0.00 | 0.00 | 0.00 | 59 | 869.5 |
| 20260506154054 | 60 | 172 | 7.0 | 11.3 | 0.00 | 0.00 | 0.00 | 59 | 869.5 |
| 20260506153854 | 59 | 175 | 7.8 | 13.0 | 0.00 | 0.00 | 0.00 | 59 | 869.5 |
| 20260506153654 | 59 | 171 | 7.0 | 13.0 | 0.00 | 0.00 | 0.00 | 59 | 869.5 |
| 20260506153453 | 58 | 166 | 7.0 | 12.2 | 0.00 | 0.00 | 0.00 | 60 | 869.6 |
| 20260506153253 | 58 | 169 | 7.8 | 10.4 | 0.00 | 0.00 | 0.00 | 60 | 869.6 |
| 20260506153053 | 58 | 172 | 8.7 | 13.0 | 0.00 | 0.00 | 0.00 | 60 | 869.6 |
| 20260506152853 | 58 | 180 | 9.6 | 13.0 | 0.00 | 0.00 | 0.00 | 60 | 869.6 |
| 20260506152651 | 58 | 178 | 7.8 | 13.0 | 0.00 | 0.00 | 0.00 | 60 | 869.6 |
| 20260506152451 | 58 | 177 | 8.7 | 13.0 | 0.00 | 0.00 | 0.00 | 60 | 869.6 |
| 20260506152251 | 58 | 175 | 8.7 | 13.0 | 0.00 | 0.00 | 0.00 | 60 | 869.7 |
| 20260506152051 | 58 | 167 | 7.0 | 10.4 | 0.00 | 0.00 | 0.00 | 60 | 869.8 |
| 20260506151851 | 58 | 175 | 7.0 | 11.3 | 0.00 | 0.00 | 0.00 | 59 | 869.8 |
| 20260506151651 | 58 | 173 | 7.8 | 11.3 | 0.00 | 0.00 | 0.00 | 59 | 869.8 |
| 20260506151451 | 58 | 172 | 9.6 | 13.9 | 0.00 | 0.00 | 0.00 | 59 | 869.8 |
| 20260506151250 | 58 | 174 | 7.8 | 11.3 | 0.00 | 0.00 | 0.00 | 59 | 869.8 |
| 20260506151050 | 58 | 177 | 8.7 | 13.9 | 0.00 | 0.00 | 0.00 | 59 | 869.8 |
| 20260506150850 | 58 | 166 | 7.8 | 13.9 | 0.00 | 0.00 | 0.00 | 59 | 869.8 |
| 20260506150649 | 58 | 166 | 6.1 | 10.4 | 0.00 | 0.00 | 0.00 | 59 | 869.8 |
| 20260506150449 | 58 | 171 | 7.8 | 13.0 | 0.00 | 0.00 | 0.00 | 59 | 869.8 |
| 20260506150249 | 58 | 167 | 11.3 | 17.4 | 0.00 | 0.00 | 0.00 | 59 | 869.8 |
| 20260506150049 | 58 | 172 | 13.0 | 20.0 | 0.00 | 0.00 | 0.00 | 59 | 869.8 |
| 20260506145849 | 58 | 171 | 13.9 | 21.7 | 0.00 | 0.00 | 0.00 | 59 | 869.7 |
| 20260506145649 | 58 | 173 | 13.0 | 21.7 | 0.00 | 0.00 | 0.00 | 59 | 869.8 |
| 20260506145449 | 58 | 171 | 11.3 | 21.7 | 0.00 | 0.00 | 0.00 | 59 | 869.8 |
| 20260506145248 | 58 | 178 | 11.3 | 16.5 | 0.00 | 0.00 | 0.00 | 59 | 869.9 |
| 20260506145048 | 58 | 174 | 10.4 | 15.6 | 0.00 | 0.00 | 0.00 | 59 | 869.9 |
| 20260506144848 | 58 | 175 | 9.6 | 14.8 | 0.00 | 0.00 | 0.00 | 59 | 869.9 |
| 20260506144646 | 58 | 176 | 8.7 | 13.0 | 0.00 | 0.00 | 0.00 | 59 | 870.0 |
| 20260506144446 | 58 | 178 | 7.8 | 11.3 | 0.00 | 0.00 | 0.00 | 59 | 869.9 |
| 20260506144247 | 58 | 172 | 9.6 | 15.6 | 0.00 | 0.00 | 0.00 | 59 | 870.0 |
| 20260506144046 | 58 | 170 | 8.7 | 12.2 | 0.00 | 0.00 | 0.00 | 59 | 869.9 |
| 20260506143846 | 58 | 172 | 10.4 | 16.5 | 0.00 | 0.00 | 0.00 | 59 | 869.9 |
| 20260506143635 | 58 | 179 | 10.4 | 16.5 | 0.00 | 0.00 | 0.00 | 58 | 869.9 |
| 20260506143435 | 59 | 177 | 10.4 | 14.8 | 0.00 | 0.00 | 0.00 | 58 | 869.9 |
| 20260506143235 | 59 | 177 | 9.6 | 14.8 | 0.00 | 0.00 | 0.00 | 58 | 869.9 |
| 20260506143035 | 59 | 176 | 10.4 | 18.2 | 0.00 | 0.00 | 0.00 | 58 | 870.0 |
| 20260506142835 | 59 | 193 | 9.6 | 18.2 | 0.00 | 0.00 | 0.00 | 58 | 870.0 |
| 20260506142633 | 60 | 178 | 8.7 | 15.6 | 0.00 | 0.00 | 0.00 | 58 | 870.0 |
| 20260506142433 | 60 | 168 | 4.3 | 15.6 | 0.00 | 0.00 | 0.00 | 58 | 870.1 |
| 20260506142233 | 60 | 168 | 4.3 | 7.0 | 0.00 | 0.00 | 0.00 | 58 | 870.1 |
| 20260506142033 | 59 | 169 | 6.1 | 8.7 | 0.00 | 0.00 | 0.00 | 58 | 870.0 |
| 20260506141833 | 59 | 200 | 5.2 | 8.7 | 0.00 | 0.00 | 0.00 | 58 | 870.0 |
| 20260506141633 | 59 | 203 | 6.1 | 12.2 | 0.00 | 0.00 | 0.00 | 58 | 870.0 |
| 20260506141433 | 59 | 172 | 6.1 | 12.2 | 0.00 | 0.00 | 0.00 | 58 | 870.0 |
| 20260506141233 | 59 | 165 | 8.7 | 12.2 | 0.00 | 0.00 | 0.00 | 58 | 870.0 |
| 20260506141033 | 59 | 184 | 7.8 | 12.2 | 0.00 | 0.00 | 0.00 | 58 | 870.0 |
| 20260506140833 | 59 | 195 | 5.2 | 10.4 | 0.00 | 0.00 | 0.00 | 58 | 870.0 |
| 20260506140631 | 60 | 191 | 5.2 | 7.8 | 0.00 | 0.00 | 0.00 | 58 | 870.0 |
| 20260506140431 | 60 | 180 | 6.1 | 9.6 | 0.00 | 0.00 | 0.00 | 58 | 870.0 |
| 20260506140232 | 61 | 172 | 5.2 | 9.6 | 0.00 | 0.00 | 0.00 | 58 | 870.0 |
| 20260506140031 | 61 | 175 | 6.1 | 10.4 | 0.00 | 0.00 | 0.00 | 57 | 870.0 |
| 20260506135831 | 61 | 169 | 7.8 | 13.0 | 0.00 | 0.00 | 0.00 | 57 | 870.0 |
| 20260506135631 | 61 | 182 | 10.4 | 17.4 | 0.00 | 0.00 | 0.00 | 57 | 869.9 |
| 20260506135431 | 61 | 178 | 10.4 | 17.4 | 0.00 | 0.00 | 0.00 | 57 | 869.9 |
| 20260506135231 | 61 | 175 | 10.4 | 16.5 | 0.00 | 0.00 | 0.00 | 57 | 870.0 |
| 20260506135031 | 60 | 169 | 10.4 | 13.9 | 0.00 | 0.00 | 0.00 | 57 | 870.0 |
| 20260506134831 | 60 | 161 | 8.7 | 13.9 | 0.00 | 0.00 | 0.00 | 57 | 870.0 |
| 20260506134711 | 60 | 161 | 7.0 | 11.3 | 0.00 | 0.00 | 0.00 | 58 | 870.0 |
| 20260506134629 | 60 | 161 | 7.0 | 11.3 | 0.00 | 0.00 | 0.00 | 58 | 870.0 |
| 20260506134429 | 60 | 189 | 7.0 | 10.4 | 0.00 | 0.00 | 0.00 | 58 | 870.0 |
| 20260506134229 | 61 | 181 | 7.8 | 11.3 | 0.00 | 0.00 | 0.00 | 57 | 870.0 |
| 20260506134029 | 61 | 185 | 4.3 | 9.6 | 0.00 | 0.00 | 0.00 | 57 | 870.0 |
| 20260506133829 | 61 | 194 | 7.0 | 13.9 | 0.00 | 0.00 | 0.00 | 57 | 870.0 |
| 20260506133629 | 61 | 186 | 6.1 | 10.4 | 0.00 | 0.00 | 0.00 | 57 | 870.1 |
| 20260506133429 | 61 | 190 | 8.7 | 19.1 | 0.00 | 0.00 | 0.00 | 57 | 870.0 |
| 20260506133229 | 61 | 197 | 9.6 | 19.1 | 0.00 | 0.00 | 0.00 | 57 | 870.0 |
| 20260506133029 | 61 | 205 | 9.6 | 15.6 | 0.00 | 0.00 | 0.00 | 57 | 870.0 |
| 20260506132827 | 61 | 210 | 8.7 | 15.6 | 0.00 | 0.00 | 0.00 | 57 | 870.0 |
| 20260506132625 | 61 | 162 | 6.1 | 14.8 | 0.00 | 0.00 | 0.00 | 58 | 870.0 |
| 20260506132425 | 61 | 172 | 5.2 | 11.3 | 0.00 | 0.00 | 0.00 | 57 | 870.0 |
| 20260506132225 | 61 | 196 | 8.7 | 14.8 | 0.00 | 0.00 | 0.00 | 57 | 870.0 |
| 20260506132025 | 61 | 211 | 7.0 | 13.9 | 0.00 | 0.00 | 0.00 | 57 | 870.0 |
| 20260506131825 | 61 | 196 | 6.1 | 11.3 | 0.00 | 0.00 | 0.00 | 57 | 870.0 |
| 20260506131625 | 61 | 182 | 6.1 | 11.3 | 0.00 | 0.00 | 0.00 | 57 | 870.0 |
| 20260506131425 | 61 | 199 | 5.2 | 8.7 | 0.00 | 0.00 | 0.00 | 58 | 870.0 |
| 20260506131225 | 61 | 211 | 5.2 | 11.3 | 0.00 | 0.00 | 0.00 | 57 | 870.0 |
| 20260506131025 | 61 | 207 | 7.8 | 14.8 | 0.00 | 0.00 | 0.00 | 58 | 869.9 |
| 20260506130825 | 61 | 184 | 7.0 | 15.6 | 0.00 | 0.00 | 0.00 | 58 | 869.9 |
| 20260506130623 | 61 | 157 | 5.2 | 12.2 | 0.00 | 0.00 | 0.00 | 58 | 869.9 |
| 20260506130423 | 61 | 180 | 6.1 | 10.4 | 0.00 | 0.00 | 0.00 | 58 | 870.0 |
| 20260506130223 | 61 | 196 | 6.1 | 10.4 | 0.00 | 0.00 | 0.00 | 58 | 870.0 |
| 20260506130023 | 61 | 163 | 6.1 | 10.4 | 0.00 | 0.00 | 0.00 | 58 | 870.0 |
| 20260506125823 | 60 | 138 | 6.1 | 9.6 | 0.00 | 0.00 | 0.00 | 58 | 870.0 |
| 20260506125621 | 60 | 168 | 4.3 | 8.7 | 0.00 | 0.00 | 0.00 | 58 | 870.1 |
| 20260506125421 | 60 | 173 | 7.8 | 12.2 | 0.00 | 0.00 | 0.00 | 58 | 870.1 |
| 20260506125221 | 60 | 166 | 12.2 | 20.0 | 0.00 | 0.00 | 0.00 | 58 | 870.1 |
| 20260506125021 | 61 | 166 | 12.2 | 20.0 | 0.00 | 0.00 | 0.00 | 58 | 870.1 |
| 20260506124821 | 61 | 174 | 11.3 | 15.6 | 0.00 | 0.00 | 0.00 | 58 | 870.1 |
| 20260506124619 | 61 | 177 | 12.2 | 15.6 | 0.00 | 0.00 | 0.00 | 58 | 870.1 |
| 20260506124419 | 61 | 178 | 12.2 | 17.4 | 0.00 | 0.00 | 0.00 | 58 | 870.1 |
| 20260506124220 | 61 | 176 | 9.6 | 17.4 | 0.00 | 0.00 | 0.00 | 58 | 870.2 |
| 20260506124019 | 61 | 181 | 5.2 | 11.3 | 0.00 | 0.00 | 0.00 | 58 | 870.2 |
| 20260506123819 | 60 | 205 | 4.3 | 9.6 | 0.00 | 0.00 | 0.00 | 58 | 870.2 |
| 20260506123619 | 60 | 184 | 6.1 | 9.6 | 0.00 | 0.00 | 0.00 | 59 | 870.2 |
| 20260506123419 | 60 | 175 | 7.0 | 10.4 | 0.00 | 0.00 | 0.00 | 59 | 870.2 |
| 20260506123219 | 59 | 188 | 7.8 | 13.9 | 0.00 | 0.00 | 0.00 | 59 | 870.2 |
| 20260506123019 | 59 | 196 | 8.7 | 16.5 | 0.00 | 0.00 | 0.00 | 59 | 870.2 |
| 20260506122819 | 59 | 189 | 8.7 | 16.5 | 0.00 | 0.00 | 0.00 | 59 | 870.2 |
| 20260506122617 | 59 | 190 | 9.6 | 13.9 | 0.00 | 0.00 | 0.00 | 59 | 870.2 |
| 20260506122417 | 60 | 184 | 10.4 | 15.6 | 0.00 | 0.00 | 0.00 | 58 | 870.2 |
| 20260506122218 | 60 | 188 | 9.6 | 12.2 | 0.00 | 0.00 | 0.00 | 58 | 870.2 |
| 20260506122015 | 60 | 190 | 8.7 | 15.6 | 0.00 | 0.00 | 0.00 | 58 | 870.2 |
| 20260506121815 | 61 | 188 | 10.4 | 15.6 | 0.00 | 0.00 | 0.00 | 58 | 870.2 |
| 20260506121615 | 61 | 191 | 8.7 | 13.9 | 0.00 | 0.00 | 0.00 | 58 | 870.2 |
| 20260506121415 | 61 | 197 | 8.7 | 13.9 | 0.00 | 0.00 | 0.00 | 58 | 870.2 |
| 20260506121215 | 61 | 206 | 8.7 | 13.9 | 0.00 | 0.00 | 0.00 | 58 | 870.2 |
| 20260506121015 | 61 | 199 | 7.0 | 12.2 | 0.00 | 0.00 | 0.00 | 59 | 870.2 |
| 20260506120815 | 60 | 166 | 5.2 | 9.6 | 0.00 | 0.00 | 0.00 | 59 | 870.2 |
| 20260506120603 | 60 | 153 | 3.5 | 7.8 | 0.00 | 0.00 | 0.00 | 59 | 870.2 |